Zurück zum Katalog

STARLINK-32545

AktivKommunikationVLEO
NORAD 62135·PAYLOAD·🇺🇸 United States

Gestartet Nov 27, 2024 von Cape Canaveral Space Force Station

Loading…

Nächste Überflüge (nächste 24 Stunden)

TLE

AktuellSource: CelesTrak SupGP

Epoche: Sep 14, 2026, 23:00 UTC

1 62135C 24222X   26257.95881944  .00008320  00000+0  30159-3 0  2579
2 62135  42.9993 147.6868 0001744 273.2039 337.1840 15.27546338    18

Verfolge STARLINK-32545 in Echtzeit mit AllMySat

Download on the App Store